Tracking 19242 objects as of 15-Aug-2018
HD Live streaming from Space Station
objects crossing your sky now

NOAA 16 DEB

Track NOAA 16 DEB now!
10-day predictions


NORAD ID: 42346
Int'l Code: 2000-055QN
Perigee: 756.1 km
Apogee: 847.8 km
Inclination: 99.1 °
Period: 100.8 minutes
Semi major axis: 7172 km
RCS: Unknown
Launch date: September 21, 2000
Source: United States (US)
Launch site: AIR FORCE WESTERN TEST RANGE (AFWTR)

Note: This is SATELLITE DEBRIS
aabbcc
Your satellite tracking list
Your tracking list is empty




NASA's NSSDC Master Catalog

Two Line Element Set (TLE):
1 42346U 00055QN  18227.15382840  .00001587  00000-0  63088-3 0  9999
2 42346  99.0623 343.5451 0063930 107.1368 253.6826 14.29089395131953
Source of the keplerian elements: AFSPC